AirNav   Pilot Hours Calculator
 
 603 users online  

T23 Albany Municipal Airport
Albany, Texas, USA

GOING TO ALBANY?


FAA INFORMATION EFFECTIVE 19 MAY 2022

Location

FAA Identifier: T23
Lat/Long: 32-43-17.0000N 099-16-03.3000W
32-43.283333N 099-16.055000W
32.7213889,-99.2675833
(estimated)
Elevation: 1414.8 ft. / 431.2 m (surveyed)
Variation: 05E (2015)
From city: 2 miles E of ALBANY, TX
Time zone: UTC -5 (UTC -6 during Standard Time)
Zip code: 76430

Airport Operations

Airport use: Open to the public
Activation date: 07/1985
Control tower: no
ARTCC: FORT WORTH CENTER
FSS: FORT WORTH FLIGHT SERVICE STATION
NOTAMs facility: FTW (NOTAM-D service available)
Attendance: IREG
Wind indicator: lighted
Segmented circle: yes
Lights: MIRL RWY 17/35 PRESET LOW INTST; TO INCR INTST AND ACTVT PAPI RWY 17 & 35 - 123.5.
Beacon: white-green (lighted land airport)
Operates sunset to sunrise.

Airport Communications

CTAF: 122.9
ABILENE APPROACH: 125.0
ABILENE DEPARTURE: 125.0
WX AWOS-3 at BKD (19 nm E): 120.175 (254-559-5525)

Nearby radio navigation aids

VOR radial/distance  VOR name  Freq  Var
ABIr054/33.4ABILENE VORTAC113.7010E

Airport Services

Fuel available: 100LL JET-A
100LL:100LL AND JET A 24 HRS SELF SERVE.
Parking: tiedowns

Runway Information

Runway 17/35

Dimensions: 5000 x 75 ft. / 1524 x 23 m
Surface: asphalt, in excellent condition
Weight bearing capacity: 
Single wheel: 30.0
Runway edge lights: medium intensity
RUNWAY 17  RUNWAY 35
Latitude: 32-43.694867N32-42.870675N
Longitude: 099-16.068915W099-16.040798W
Elevation: 1386.0 ft.1412.4 ft.
Traffic pattern: leftright
Runway heading: 173 magnetic, 178 true353 magnetic, 358 true
Markings: nonprecision, in good conditionnonprecision, in good condition
Visual slope indicator: 2-light PAPI on left (3.00 degrees glide path)2-light PAPI on left (3.00 degrees glide path)
Touchdown point: yes, no lightsyes, no lights
Obstructions: 9 ft. road, 507 ft. from runway, 34:1 slope to clear25 ft. pline, marked, 999 ft. from runway, 31:1 slope to clear

Airport Ownership and Management from official FAA records

Ownership: Publicly-owned
Owner: THE CITY OF ALBANY
P O BOX 3248
ALBANY, TX 76430
Phone 325-762-3133
Manager: BRIAN HOLSON
P O BOX 3248
ALBANY, TX 76430
Phone 325-762-0383

Airport Operational Statistics

Aircraft based on the field: 8
Single engine airplanes: 7
Helicopters: 1
    
Aircraft operations: avg 40/week *
67% local general aviation
33% transient general aviation
* for 12-month period ending 31 August 2021

Additional Remarks

FOR CD CTC FORT WORTH ARTCC AT 817-858-7584.

Instrument Procedures

NOTE: All procedures below are presented as PDF files. If you need a reader for these files, you should download the free Adobe Reader.

NOT FOR NAVIGATION. Please procure official charts for flight.
FAA instrument procedures published for use from 19 May 2022 at 0901Z to 16 June 2022 at 0900Z.

 
IAPs - Instrument Approach Procedures
RNAV (GPS) RWY 17   download (219KB)
RNAV (GPS) RWY 35   download (228KB)

Other nearby airports with instrument procedures:

KBKD - Stephens County Airport (19 nm E)
KGZN - Gregory M Simmons Memorial Airport (25 nm SE)
F56 - Arledge Field Airport (26 nm NW)
KABI - Abilene Regional Airport (28 nm SW)
KETN - Eastland Municipal Airport (30 nm SE)
 
Loc | Ops | Rwys | IFR | FBO | Links
Com | Nav | Svcs | Stats | Notes
Area around T23 (Albany Municipal Airport)
 
Road maps at: MapQuest Bing Google
 
Aerial photo
WARNING: Photo may not be current or correct
Aerial photo of T23 (Albany Municipal Airport)
Do you have a better or more recent aerial photo of Albany Municipal Airport that you would like to share? If so, please send us your photo.

 
Sectional chart

 
Airport distance calculator
Flying to Albany Municipal Airport? Find the distance to fly.

From to T23

Sunrise and sunset
Times for 19-May-2022
 Local
(UTC-5)
 Zulu
(UTC)
Morning civil twilight06:0911:09
Sunrise06:3711:37
Sunset20:3001:30
Evening civil twilight20:5801:58

Current date and time
Zulu (UTC)  19-May-2022 05:53:50
Local (UTC-5)  19-May-2022 00:53:50
 
METAR
KBKD 
19nm E 
190535Z AUTO 19012KT 7SM CLR 31/10 A2974 RMK AO2 T03050104
KGZN 
25nm SE 
190520Z AUTO 18013KT 10SM CLR 29/09 A2976 RMK AO2
KABI 
28nm SW 
182352Z 23009KT 10SM CLR 39/M01 A2968 RMK AO2 SLP016 T03891011 10411 20367 56022
KETN 
30nm SE 
190530Z AUTO 16008KT 10SM CLR 27/11 A2977 RMK AO2 T02730114
KDYS 
34nm SW 
190456Z 18018G22KT 8SM FU SCT030 32/09 A2973 RMK AO2A PK WND 18028/18 FU SCT000 SLP007 T03240086
TAF
KABI 
28nm SW 
181740Z 1818/1918 22014G22KT P6SM SKC FM190200 18011KT P6SM SKC FM190500 18015G23KT P6SM SKC FM191500 21017G24KT P6SM SKC
KDYS 
34nm SW 
190430Z 1904/2010 18015G25KT 9000 FU SCT050 QNH2968INS BECMG 1917/1918 20012KT 9999 NSW SKC QNH2954INS BECMG 1920/1921 19012G18KT 9999 SKC QNH2945INS BECMG 1923/2000 18012KT 9999 SKC QNH2945INS TX41/1919Z TN24/1912Z LAST NO AMDS AFT 1905 NEXT 1912
NOTAMs
Click for the latest NOTAMs
NOTAMs are issued by the DoD/FAA and will open in a separate window not controlled by AirNav.

 

 
 

FBO, Fuel Providers, and Aircraft Ground Support

  
 Business Name 
 
 Contact 
 
 Services / Description 
 
Fuel Prices
 
Comments
  
Albany Municipal Airport 325-762-3133
325-762-0413
[email]
Aviation fuel, Courtesy transportation

More info about Albany Municipal Airport
Avfuel
100LL Jet A
SS $5.20 $4.95 
 Updated 11-May-2022
 
   write
SS=Self service
Update Fuel Prices
 

Would you like to see your business listed on this page?

 If your business provides an interesting product or service to pilots, flight crews, aircraft, or users of the Albany Municipal Airport, you should consider listing it here.  To start the listing process, click on the button below
 
Add a business
 

Other Pages about Albany Municipal Airport

Update a link
 
Copyright © AirNav, LLC. All rights reserved. Privacy Policy  Contact